When you browse on this site, cookies collect data to enhance your experience and personalize the content and advertising you see.
Visit our Privacy Policy to learn more. By continuing to use the site, you agree to this use of cookies and data.
  • In Österreich
  • Länderverzeichnis
  • Für 7 Tage
  • Wassertemperatur
  • Wetterkarte
  • News
  • Widgets
  • user-avatar
    Anmelden

    Stündliche Wetter Kranewo

    Heute, 26 Januar, Sonntag

    Zeit Temperatur Niederschläge Wind Luftdruck Luftfeuchtigkeit
    00:00 +5°C° 0 mm 2 m/S 761 mmHg 57%
    01:00 +5°C° 0 mm 2 m/S 761 mmHg 59%
    02:00 +5°C° 0 mm 2 m/S 761 mmHg 60%
    03:00 +5°C° 0 mm 2 m/S 761 mmHg 64%
    04:00 +4°C° 0 mm 2 m/S 762 mmHg 68%
    05:00 +4°C° 0 mm 2 m/S 762 mmHg 72%
    06:00 +4°C° 0 mm 2 m/S 762 mmHg 74%
    07:00 +3°C° 0 mm 2 m/S 762 mmHg 77%
    08:00 +3°C° 0 mm 2 m/S 762 mmHg 77%
    09:00 +5°C° 0 mm 2 m/S 762 mmHg 71%
    10:00 +8°C° 0 mm 1 m/S 762 mmHg 64%
    11:00 +10°C° 0 mm 1 m/S 763 mmHg 57%
    12:00 +10°C° 0 mm 1 m/S 762 mmHg 55%
    13:00 +11°C° 0 mm 1 m/S 762 mmHg 53%
    14:00 +12°C° 0 mm 1 m/S 762 mmHg 50%
    15:00 +11°C° 0 mm 1 m/S 762 mmHg 55%
    16:00 +10°C° 0 mm 1 m/S 762 mmHg 60%
    17:00 +8°C° 0 mm 2 m/S 762 mmHg 65%
    18:00 +8°C° 0 mm 1 m/S 762 mmHg 67%
    19:00 +7°C° 0 mm 1 m/S 762 mmHg 70%
    20:00 +7°C° 0 mm 1 m/S 762 mmHg 73%
    21:00 +6°C° 0 mm 1 m/S 762 mmHg 73%
    22:00 +6°C° 0 mm 1 m/S 761 mmHg 74%
    23:00 +5°C° 0 mm 2 m/S 761 mmHg 74%

    Morgen, 27 Januar, Montag

    Zeit Temperatur Niederschläge Wind Luftdruck Luftfeuchtigkeit
    00:00 +5°C° 0 mm 2 m/S 761 mmHg 75%
    01:00 +5°C° 0 mm 2 m/S 761 mmHg 76%
    02:00 +5°C° 0 mm 2 m/S 760 mmHg 76%
    03:00 +5°C° 0 mm 2 m/S 760 mmHg 78%
    04:00 +5°C° 0 mm 2 m/S 759 mmHg 80%
    05:00 +5°C° 0 mm 2 m/S 759 mmHg 82%
    06:00 +6°C° 0 mm 2 m/S 759 mmHg 85%
    07:00 +6°C° 0 mm 2 m/S 759 mmHg 87%
    08:00 +7°C° 0 mm 2 m/S 759 mmHg 90%
    09:00 +8°C° 0 mm 3 m/S 759 mmHg 87%
    10:00 +10°C° 0 mm 3 m/S 758 mmHg 84%
    11:00 +11°C° 0 mm 4 m/S 758 mmHg 82%
    12:00 +11°C° 0 mm 4 m/S 758 mmHg 81%
    13:00 +11°C° 0 mm 4 m/S 757 mmHg 80%
    14:00 +12°C° 0 mm 4 m/S 757 mmHg 78%
    15:00 +11°C° 0 mm 4 m/S 757 mmHg 82%
    16:00 +10°C° 0 mm 3 m/S 756 mmHg 86%
    17:00 +10°C° 0 mm 3 m/S 756 mmHg 90%
    18:00 +10°C° 0.1 mm 3 m/S 756 mmHg 91%
    19:00 +9°C° 0.1 mm 3 m/S 756 mmHg 92%
    20:00 +9°C° 0.1 mm 3 m/S 756 mmHg 93%
    21:00 +9°C° 1.7 mm 3 m/S 756 mmHg 91%
    22:00 +8°C° 1.7 mm 3 m/S 755 mmHg 90%
    23:00 +8°C° 1.7 mm 3 m/S 755 mmHg 88%

    übermorgen, 28 Januar, Dienstag

    Zeit Temperatur Niederschläge Wind Luftdruck Luftfeuchtigkeit
    00:00 +7°C° 1.6 mm 3 m/S 755 mmHg 89%
    01:00 +7°C° 1.6 mm 3 m/S 754 mmHg 89%
    02:00 +5°C° 1.6 mm 3 m/S 754 mmHg 90%
    03:00 +5°C° 1.7 mm 4 m/S 754 mmHg 90%
    04:00 +5°C° 1.7 mm 4 m/S 753 mmHg 91%
    05:00 +5°C° 1.7 mm 5 m/S 753 mmHg 92%
    06:00 +5°C° 0.7 mm 5 m/S 753 mmHg 90%
    07:00 +4°C° 0.7 mm 6 m/S 753 mmHg 88%
    08:00 +4°C° 0.7 mm 6 m/S 753 mmHg 86%
    09:00 +4°C° 0.1 mm 6 m/S 753 mmHg 85%
    10:00 +4°C° 0.1 mm 6 m/S 754 mmHg 83%
    11:00 +5°C° 0.1 mm 6 m/S 754 mmHg 82%
    12:00 +5°C° 0 mm 6 m/S 753 mmHg 79%
    13:00 +7°C° 0 mm 5 m/S 753 mmHg 76%
    14:00 +8°C° 0 mm 5 m/S 753 mmHg 72%
    15:00 +8°C° 0 mm 4 m/S 753 mmHg 74%
    16:00 +9°C° 0 mm 3 m/S 753 mmHg 75%
    17:00 +8°C° 0 mm 2 m/S 753 mmHg 77%
    18:00 +8°C° 0 mm 3 m/S 753 mmHg 77%
    19:00 +7°C° 0 mm 3 m/S 753 mmHg 78%
    20:00 +7°C° 0 mm 3 m/S 753 mmHg 78%
    21:00 +7°C° 0 mm 3 m/S 753 mmHg 78%
    22:00 +7°C° 0 mm 3 m/S 753 mmHg 79%
    23:00 +5°C° 0 mm 4 m/S 753 mmHg 79%

    29 Januar, Mittwoch

    Zeit Temperatur Niederschläge Wind Luftdruck Luftfeuchtigkeit
    00:00 +5°C° 0 mm 4 m/S 752 mmHg 79%
    01:00 +5°C° 0 mm 4 m/S 752 mmHg 80%
    02:00 +5°C° 0 mm 4 m/S 751 mmHg 81%
    03:00 +5°C° 0 mm 4 m/S 751 mmHg 81%
    04:00 +5°C° 0 mm 4 m/S 750 mmHg 82%
    05:00 +5°C° 0 mm 4 m/S 750 mmHg 83%
    06:00 +6°C° 0 mm 4 m/S 750 mmHg 83%
    07:00 +6°C° 0 mm 4 m/S 750 mmHg 82%
    08:00 +6°C° 0 mm 5 m/S 750 mmHg 81%
    09:00 +7°C° 0 mm 6 m/S 750 mmHg 76%
    10:00 +8°C° 0 mm 7 m/S 750 mmHg 72%
    11:00 +10°C° 0 mm 8 m/S 750 mmHg 67%
    12:00 +9°C° 0.2 mm 8 m/S 750 mmHg 68%
    13:00 +7°C° 0.2 mm 8 m/S 750 mmHg 68%
    14:00 +6°C° 0.2 mm 9 m/S 751 mmHg 69%
    15:00 +6°C° 0 mm 8 m/S 751 mmHg 66%
    16:00 +5°C° 0 mm 7 m/S 751 mmHg 62%
    17:00 +5°C° 0 mm 6 m/S 752 mmHg 59%
    18:00 +5°C° 0 mm 5 m/S 752 mmHg 61%
    19:00 +5°C° 0 mm 5 m/S 753 mmHg 64%
    20:00 +4°C° 0 mm 4 m/S 753 mmHg 66%
    21:00 +4°C° 0 mm 3 m/S 753 mmHg 66%
    22:00 +5°C° 0 mm 2 m/S 753 mmHg 65%
    23:00 +6°C° 0 mm 1 m/S 753 mmHg 65%

    30 Januar, Donnerstag

    Zeit Temperatur Niederschläge Wind Luftdruck Luftfeuchtigkeit
    00:00 +5°C° 0 mm 2 m/S 753 mmHg 65%
    01:00 +5°C° 0 mm 2 m/S 753 mmHg 65%
    02:00 +5°C° 0 mm 2 m/S 753 mmHg 66%
    03:00 +5°C° 0.1 mm 2 m/S 753 mmHg 73%
    04:00 +5°C° 0.1 mm 2 m/S 753 mmHg 81%
    05:00 +5°C° 0.1 mm 2 m/S 753 mmHg 89%
    06:00 +5°C° 0 mm 2 m/S 753 mmHg 88%
    07:00 +4°C° 0 mm 3 m/S 753 mmHg 87%
    08:00 +4°C° 0 mm 3 m/S 754 mmHg 87%
    09:00 +4°C° 0 mm 4 m/S 754 mmHg 77%
    10:00 +5°C° 0 mm 5 m/S 754 mmHg 68%
    11:00 +5°C° 0 mm 6 m/S 754 mmHg 58%
    12:00 +5°C° 0 mm 6 m/S 754 mmHg 57%
    13:00 +6°C° 0 mm 5 m/S 754 mmHg 55%
    14:00 +7°C° 0 mm 5 m/S 754 mmHg 53%
    15:00 +6°C° 0 mm 5 m/S 754 mmHg 54%
    16:00 +6°C° 0 mm 5 m/S 754 mmHg 56%
    17:00 +5°C° 0 mm 5 m/S 754 mmHg 57%
    18:00 +3°C° 0 mm 5 m/S 755 mmHg 59%
    19:00 +3°C° 0 mm 6 m/S 755 mmHg 60%
    20:00 +2°C° 0 mm 6 m/S 755 mmHg 62%
    21:00 +2°C° 0 mm 6 m/S 756 mmHg 62%
    22:00 +1°C° 0 mm 6 m/S 756 mmHg 63%
    23:00 0°C° 0 mm 7 m/S 756 mmHg 63%

    31 Januar, Freitag

    Zeit Temperatur Niederschläge Wind Luftdruck Luftfeuchtigkeit
    00:00 +1°C° 0 mm 6 m/S 757 mmHg 65%
    01:00 -1°C° 0 mm 6 m/S 757 mmHg 67%
    02:00 -1°C° 0 mm 6 m/S 757 mmHg 69%
    03:00 -2°C° 0 mm 6 m/S 757 mmHg 70%
    04:00 -2°C° 0 mm 6 m/S 758 mmHg 71%
    05:00 -2°C° 0 mm 6 m/S 758 mmHg 72%
    06:00 -2°C° 0 mm 6 m/S 758 mmHg 72%
    07:00 -1°C° 0 mm 5 m/S 759 mmHg 72%
    08:00 -1°C° 0 mm 5 m/S 759 mmHg 72%
    09:00 0°C° 0 mm 4 m/S 759 mmHg 65%
    10:00 +3°C° 0 mm 4 m/S 759 mmHg 58%
    11:00 +5°C° 0 mm 3 m/S 760 mmHg 51%
    12:00 +5°C° 0 mm 4 m/S 759 mmHg 49%
    13:00 +6°C° 0 mm 4 m/S 759 mmHg 46%
    14:00 +7°C° 0 mm 4 m/S 758 mmHg 43%
    15:00 +6°C° 0 mm 4 m/S 758 mmHg 46%
    16:00 +5°C° 0 mm 3 m/S 758 mmHg 49%
    17:00 +5°C° 0 mm 3 m/S 758 mmHg 52%
    18:00 +4°C° 0 mm 3 m/S 758 mmHg 53%
    19:00 +4°C° 0 mm 3 m/S 757 mmHg 54%
    20:00 +3°C° 0 mm 3 m/S 757 mmHg 56%
    21:00 +3°C° 0 mm 3 m/S 757 mmHg 57%
    22:00 +3°C° 0 mm 4 m/S 757 mmHg 58%
    23:00 +3°C° 0 mm 4 m/S 757 mmHg 59%
    Mehr zeigen